This is the latest recevied weather packets stored in our database for station/object K0CVS. If no packets are shown the sender has not sent any weather packets the latest 10 day(s).
| Time | Temp. | Humidity | Pressure | Rain* | Wind** | Luminosity | Snow |
|---|---|---|---|---|---|---|---|
| 1778072423 | 8.89° C | 75% | 1018 hPa | 0 mm | - | 32 W/m² | - |
| 1778072121 | 8.89° C | 77% | 1017.8 hPa | 0 mm | - | 32 W/m² | - |
| 1778071819 | 8.33° C | 78% | 1017.9 hPa | 0 mm | - | 33 W/m² | - |
| 1778071517 | 8.33° C | 82% | 1017.6 hPa | 0 mm | - | 42 W/m² | - |
| 1778071214 | 7.78° C | 83% | 1017.7 hPa | 0 mm | - | 33 W/m² | - |
| 1778070912 | 7.78° C | 84% | 1017.5 hPa | 0 mm | - | 32 W/m² | - |
| 1778070609 | 7.78° C | 86% | 1017.4 hPa | 0 mm | - | 24 W/m² | - |
| 1778070306 | 7.78° C | 87% | 1017.4 hPa | 0 mm | - | 33 W/m² | - |
| 1778070005 | 7.78° C | 89% | 1017.2 hPa | 0 mm | - | 25 W/m² | - |
| 1778069701 | 7.78° C | 89% | 1017 hPa | 0 mm | - | 25 W/m² | - |
| 1778069398 | 7.78° C | 89% | 1017.1 hPa | 0 mm | - | 25 W/m² | - |
| 1778069096 | 7.78° C | 88% | 1017 hPa | 0 mm | - | 17 W/m² | - |
| 1778068793 | 7.78° C | 88% | 1016.8 hPa | 0 mm | - | 14 W/m² | - |
| 1778068491 | 7.78° C | 88% | 1016.5 hPa | 0 mm | - | 18 W/m² | - |
| 1778068189 | 7.78° C | 88% | 1016.8 hPa | 0 mm | - | 10 W/m² | - |
| 1778067886 | 7.78° C | 87% | 1016.5 hPa | 0 mm | - | 11 W/m² | - |
| 1778067584 | 7.78° C | 87% | 1016.3 hPa | 0 mm | - | 12 W/m² | - |
| 1778067282 | 7.78° C | 87% | 1016.2 hPa | 0 mm | - | 5 W/m² | - |
| 1778066978 | 7.78° C | 86% | 1016 hPa | 0 mm | - | 2 W/m² | - |
| 1778066676 | 7.78° C | 87% | 1016 hPa | 0 mm | - | 1 W/m² | - |
| 1778066373 | 7.78° C | 87% | 1016.2 hPa | 0 mm | - | 1 W/m² | - |
| 1778066071 | 7.78° C | 86% | 1016.1 hPa | 0 mm | - | 0 W/m² | - |
| 1778065768 | 7.78° C | 86% | 1016.5 hPa | 0 mm | - | 0 W/m² | - |
| 1778065466 | 7.78° C | 86% | 1016.7 hPa | 0 mm | - | 0 W/m² | - |
| 1778065162 | 7.78° C | 86% | 1016.8 hPa | 0 mm | - | 0 W/m² | - |
* Rain latest hour (hover to see other rain measurements)
** Current wind speed in m/s (hover to see current wind gust speed)